Flag for U.S.A. Weather past 2 weeks in Amarillo, Texas, U.S.A.

Now
64 °F

Clear.


Feels Like: 64 °F
Forecast: 63 / 82 °F
Wind: 6 mph from Southwest

Location: Amarillo International Airport

Current Time: Aug 2, 2014 at 1:56:08 AM

Latest Report: Aug 2, 2014 at 12:53 AM


Visibility: 10 mi

Pressure: 30.08 "Hg

Humidity: 70%

Dew point: 54 °F

Location of AmarilloLocation

Historic Weather in Amarillo — Graph

°F

Amarillo temperature yesterday

Maximum temperature yesterday: 84 °F (at 2:53 PM)
Minimum temperature yesterday: 59 °F (at 5:53 AM)
Average temperature yesterday: 72 °F

Past Weeks' High & Low Weather Summary

 TemperatureHumidityPressure
High99 °F (Jul 25, 3:53 PM)97% (Jul 19, 5:53 AM)30.38 "Hg (Jul 19, 5:53 AM)
Low58 °F (Jul 31, 6:53 AM)20% (Jul 26, 4:53 PM)29.77 "Hg (Jul 25, 6:53 PM)
Average76 °F62%29.99 "Hg
* Reported Jul 17 11:02 PM — Aug 1 11:53 PM, Amarillo, Weather by CustomWeather, © 2014

Note: Actual official high and low records may vary slightly from our data, if they occured in-between our weather recording intervals... More about our weather records

Advertising

Amarillo weather history for previous 24 hours

 ConditionsComfort  
Time TempWeatherWind HumidityBarometerVisibility
11:53 PM
Aug 1
66 °FClear.9 mph65%30.07 "Hg10 mi
10:53 PM70 °FClear.7 mph59%30.06 "Hg10 mi
9:53 PM71 °FClear.8 mph53%30.05 "Hg10 mi
8:53 PM73 °FSunny.8 mph48%30.03 "Hg10 mi
7:53 PM79 °FSunny.10 mph39%30.02 "Hg10 mi
6:53 PM82 °FSunny.10 mph33%30.01 "Hg10 mi
5:53 PM84 °FScattered clouds.12 mph31%30.01 "Hg10 mi
4:53 PM84 °FSunny.15 mph29%30.02 "Hg10 mi
3:53 PM84 °FSunny.14 mph26%30.03 "Hg10 mi
2:53 PM84 °FPassing clouds.15 mph29%30.04 "Hg10 mi
1:53 PM83 °FSunny.8 mph31%30.06 "Hg10 mi
12:53 PM81 °FSunny.6 mph32%30.07 "Hg10 mi
11:53 AM80 °FPassing clouds.6 mph36%30.08 "Hg10 mi
10:53 AM73 °FPartly sunny.10 mph55%30.09 "Hg10 mi
9:53 AM72 °FPassing clouds.10 mph55%30.09 "Hg10 mi
8:53 AM70 °FSunny.8 mph59%30.08 "Hg10 mi
7:53 AM66 °FClear.6 mph68%30.07 "Hg10 mi
6:53 AM62 °FPassing clouds.6 mph75%30.06 "Hg10 mi
5:53 AM59 °FClear.7 mph87%30.06 "Hg10 mi
4:53 AM61 °FClear.6 mph78%30.06 "Hg10 mi
3:53 AM61 °FClear.5 mph78%30.06 "Hg10 mi
2:53 AM64 °FClear.7 mph73%30.06 "Hg10 mi
1:53 AM63 °FClear.5 mph78%30.07 "Hg10 mi
Weather by CustomWeather, © 2014

See weather overviewHow to use our weather pages